Location: Unspecified
(43.8044°N, 11.0278°E)
Time: 20:00:22
(UTC+02:00)

CZ-3 Stage 3 - Visible Passes

Search period start: 30 August 2015 00:00
Search period end: 09 September 2015 00:00
Orbit: 439 x 34786 km, 30.9° (Epoch: 29 August)

Date Brightness Start Highest point End Pass type
(mag) Time Alt. Az. Time Alt. Az. Time Alt. Az.
30 Aug 6.5 03:36:43 32° WSW 04:04:15 70° S 12:34:58 10° S visible
31 Aug 6.5 00:09:35 36° SE 00:09:35 36° SE 08:45:32 10° SE visible
02 Sep 6.6 03:31:45 33° WSW 03:59:15 70° S 12:27:50 10° S visible
03 Sep 6.6 00:04:38 37° SE 00:04:38 37° SE 08:39:45 10° SE visible
05 Sep 6.6 03:26:51 35° WSW 03:54:17 70° S 12:20:33 10° SSW visible
05 Sep 6.6 23:59:44 38° ESE 23:59:44 38° ESE 08:33:56 10° SE visible
08 Sep 6.6 03:21:59 36° WSW 03:49:21 70° S 12:13:05 10° SSW visible
